Wetbulb
69.26 71.28 70.90 71.48 72.15 71.72 71.37 71.34 71.06 71.03 71.13 70.44 70.20 69.89 69.77 69.55 69.33 69.57 69.31 69.53 68.87 67.51 67.02 66.35 66.10 66.26 66.63 67.10 67.26 67.20 67.04 67.22 67.36 67.53 68.33 68.60 68.80 68.91 69.07 69.07 69.10 69.25 69.43
70.34 71.48 70.30 71.34 71.89 71.63 71.67 71.37 71.08 70.94 70.65 69.71 69.49 69.25 68.94 69.06 68.77 68.29 68.46 67.99 67.49 65.93 65.68 65.26 64.91 64.62 64.70 64.91 65.08 65.51 65.96 66.28 66.70 67.08 67.52 67.40 66.88 68.70 68.70 68.97 68.98 69.14 69.04
70.32 71.44 70.86 70.24 71.58 71.60 71.70 71.54 71.23 70.34 69.89 69.66 69.10 68.48 68.74 68.21 67.27 66.61 66.95 67.14 66.47 65.14 64.82 64.18 63.84 63.99 64.04 63.98 63.87 64.01 64.78 65.25 65.85 66.60 66.84 68.26 68.07 68.68 68.09 68.99 68.62 68.02 68.16
70.63 71.17 70.43 70.34 71.36 71.69 71.37 70.85 70.59 70.20 69.61 69.20 68.28 68.45 68.00 66.81 66.20 65.92 65.72 66.50 66.16 64.81 64.37 63.82 63.67 64.02 63.94 64.03 63.86 64.03 64.40 64.36 63.71 64.40 67.48 68.29 67.82 67.97 68.92 68.29 67.44 67.80 68.26
70.32 70.80 70.88 70.15 71.07 71.36 71.07 70.48 70.44 70.13 69.66 69.05 68.59 68.29 66.98 65.95 65.64 65.41 65.54 65.97 66.41 65.41 65.18 64.46 64.39 64.08 63.81 63.93 64.08 63.62 63.95 63.93 62.24 64.97 66.72 67.49 68.02 67.18 68.41 67.22 67.05 66.68 67.74
70.00 70.81 70.07 69.61 70.45 70.91 71.06 70.83 70.59 70.05 69.16 68.77 68.71 67.85 66.24 65.33 64.82 64.82 65.56 66.11 65.54 65.32 65.23 64.94 64.72 64.60 64.84 64.80 64.37 63.57 63.00 62.97 63.91 64.55 66.40 66.45 65.99 66.42 67.66 67.51 67.39 67.16 67.89
69.73 70.63 70.98 68.39 69.80 70.59 70.82 70.47 70.16 69.33 68.76 68.64 68.76 67.82 66.79 65.14 64.86 64.72 65.59 65.62 65.27 64.70 64.67 64.56 64.52 64.73 64.89 64.97 63.73 63.15 62.80 61.30 63.21 63.89 66.12 66.80 66.98 67.31 67.32 67.27 67.52 67.58 67.49
68.71 69.97 70.39 69.67 69.67 69.75 70.10 69.78 68.83 68.38 68.21 68.36 68.18 67.66 66.58 65.91 65.78 64.79 64.93 65.23 64.80 64.81 64.78 64.75 64.71 64.53 64.57 64.31 63.50 62.59 61.29 60.29 59.41 60.76 62.97 64.12 66.57 66.84 66.28 67.21 67.22 67.80 67.73
68.79 68.53 69.56 70.12 69.69 68.50 67.99 67.69 67.06 67.39 67.48 67.76 67.53 66.99 66.42 65.68 65.47 65.49 65.24 65.00 64.82 65.36 65.04 64.85 64.48 64.41 63.96 63.27 62.71 61.88 59.65 59.07 59.37 59.13 59.04 60.84 64.05 65.72 65.85 65.68 66.84 66.79 66.74
67.33 67.54 67.90 69.50 69.31 69.31 68.41 66.33 66.19 66.32 66.41 66.47 66.47 65.87 64.91 64.63 64.98 65.17 63.55 64.81 65.04 64.92 64.71 64.34 63.83 62.58 61.29 61.33 61.84 61.31 58.67 58.95 59.92 59.26 59.18 59.53 62.67 63.93 64.82 64.69 65.40 66.10 66.11
65.51 66.55 67.47 68.07 67.89 67.04 66.88 66.57 65.87 66.21 65.83 65.59 65.90 64.80 64.03 65.29 65.09 64.93 63.80 64.46 62.98 62.57 63.06 62.56 61.17 60.10 59.73 60.14 60.25 59.89 59.69 60.83 60.46 60.12 59.50 58.51 61.40 62.59 63.66 64.73 65.32 65.79 65.55
64.38 65.29 65.68 65.83 65.29 64.93 64.74 66.39 66.26 65.95 65.85 65.98 65.74 65.75 65.63 65.44 65.23 64.91 63.02 61.05 60.71 60.51 60.40 59.82 59.08 59.36 59.51 59.28 59.10 59.39 59.07 59.12 59.63 59.81 59.68 58.19 60.15 61.81 62.52 63.13 64.72 64.91 64.77
64.07 63.71 63.46 64.13 64.26 63.95 64.20 65.14 65.01 65.44 65.59 65.70 65.38 65.68 65.55 65.02 65.56 64.61 61.46 61.01 61.13 59.12 59.08 58.98 58.43 57.22 57.06 56.81 56.62 57.05 57.21 57.52 57.62 57.74 58.12 57.52 58.72 60.82 62.18 62.26 62.42 63.40 64.51
61.01 61.63 62.47 62.88 62.94 63.24 63.89 63.84 64.13 64.70 65.08 65.37 65.85 65.71 65.74 64.41 61.67 60.50 59.94 58.92 58.76 58.21 57.54 56.94 56.19 56.20 55.58 54.74 54.29 54.45 55.48 55.65 55.41 55.25 56.52 56.13 57.29 59.08 60.54 61.38 61.74 62.14 62.56
59.12 60.60 61.67 62.08 62.02 62.04 62.91 63.63 64.17 64.42 64.79 65.27 65.37 63.39 62.56 61.33 60.10 59.08 57.44 56.82 56.53 56.84 56.44 55.56 55.04 54.27 53.85 53.74 53.38 53.20 53.40 53.94 54.27 54.44 55.12 54.82 55.41 57.19 58.84 59.66 59.98 60.38 60.49
59.46 60.44 61.87 61.96 62.22 62.11 61.75 62.50 63.03 63.67 63.43 63.14 62.08 62.18 61.24 60.59 58.92 56.52 56.01 55.45 55.61 55.56 55.38 55.06 54.34 53.60 52.78 52.47 52.01 52.63 52.83 53.28 53.57 54.06 54.08 55.14 52.55 52.75 54.03 55.38 55.93 56.38 57.09
60.65 61.48 61.35 61.55 61.95 61.45 61.05 60.65 58.63 59.38 59.37 59.29 59.79 59.44 59.44 57.33 56.16 55.98 55.57 55.11 54.80 54.65 54.39 53.78 52.99 52.57 51.54 51.03 51.49 52.12 52.20 52.80 52.32 52.98 53.76 54.06 53.42 50.70 50.20 51.83 52.25 52.75 53.33
61.17 61.69 62.39 61.72 61.06 60.25 60.33 57.25 56.21 57.06 58.10 57.18 56.78 55.32 55.85 55.59 55.99 54.75 52.63 53.24 53.09 51.50 50.89 51.55 50.87 50.53 50.54 50.81 50.84 51.20 51.63 51.30 51.83 51.98 52.20 51.97 51.51 50.79 50.52 49.46 49.95 50.40 50.76
61.76 61.50 60.84 62.14 61.79 60.19 56.98 54.99 54.12 54.99 54.38 53.42 53.90 54.75 55.21 53.55 53.45 52.07 50.50 51.16 51.75 50.88 51.33 50.71 50.37 50.14 49.05 48.99 48.25 49.68 49.30 49.71 52.19 50.78 49.95 49.67 49.91 49.90 49.66 48.95 48.52 48.47 48.81
61.45 61.25 61.51 62.14 59.69 55.98 55.38 54.72 54.13 53.73 53.32 53.36 53.47 53.55 52.71 52.01 52.22 51.97 51.12 51.23 51.66 50.63 49.80 49.35 48.55 48.57 48.64 47.77 46.29 47.24 47.40 49.83 51.70 49.63 48.16 48.45 48.35 48.35 48.32 48.14 48.05 47.50 47.25
61.19 61.14 61.38 59.21 57.32 54.97 54.98 53.53 53.31 52.95 53.10 52.92 51.47 52.50 51.85 51.24 50.80 51.22 50.85 50.78 50.53 49.06 48.28 48.08 47.34 46.52 46.06 47.50 45.17 44.68 45.99 49.64 48.61 48.12 47.40 47.19 46.94 46.93 47.19 47.17 46.62 46.45 46.61
60.41 61.08 60.71 59.99 56.34 55.07 55.77 56.17 57.15 56.07 54.66 51.77 50.84 50.40 50.51 50.71 50.75 50.06 50.21 49.48 49.03 47.98 47.53 47.07 46.71 45.01 45.48 46.69 43.15 42.63 40.04 42.47 46.85 45.40 45.61 45.10 45.57 46.20 45.17 45.81 45.86 45.80 46.34
59.03 59.33 59.90 58.87 56.07 56.25 56.03 55.94 54.68 53.20 51.17 49.96 49.63 49.39 49.70 49.93 49.41 49.68 49.38 49.28 48.70 48.30 46.26 46.33 46.04 44.82 42.44 44.67 45.28 41.92 38.06 36.73 39.40 42.82 43.02 43.93 43.76 43.67 44.29 44.22 44.66 44.63 45.71
51.90 53.60 55.14 56.07 55.01 54.81 54.42 54.14 53.63 53.67 52.83 51.32 50.27 49.91 49.79 48.59 48.67 48.88 48.69 48.36 48.00 47.80 45.96 45.67 45.80 45.12 43.66 40.71 42.39 43.46 42.22 40.45 35.05 34.15 39.85 40.52 41.69 40.97 42.36 43.30 43.78 44.63 45.30
51.55 52.49 53.35 53.27 53.05 53.10 53.26 53.57 52.65 51.12 49.92 49.36 49.38 48.57 49.30 49.54 48.83 48.47 48.09 47.40 47.34 47.02 46.22 45.20 44.99 43.81 43.61 41.55 40.60 39.84 39.12 39.13 39.26 35.82 32.31 35.33 38.33 39.93 41.28 40.68 42.93 43.78 44.48
52.50 52.74 52.62 52.67 51.93 52.24 52.51 52.18 51.54 50.38 49.58 49.45 49.65 49.84 50.04 49.74 49.30 48.33 46.55 46.73 46.75 45.72 44.82 44.38 44.35 43.43 42.59 42.04 41.32 39.98 37.62 35.91 35.05 34.82 32.78 33.13 33.53 36.07 38.21 39.98 40.22 42.48 43.16
MSLP
1018.44 1018.63 1019.16 1019.50 1019.77 1019.94 1020.22 1020.58 1020.60 1020.59 1020.53 1020.79 1021.00 1021.20 1021.34 1021.42 1021.34 1021.51 1021.74 1021.65 1021.54 1021.51 1021.65 1021.68 1021.62 1021.49 1021.43 1021.26 1021.23 1021.10 1020.99 1020.92 1020.73 1020.41 1020.02 1019.96 1019.70 1019.67 1019.87 1019.88 1019.66 1019.55 1019.82
1018.33 1018.87 1019.19 1019.77 1019.91 1020.13 1020.46 1020.71 1020.69 1020.80 1020.87 1020.97 1021.19 1021.47 1021.49 1021.50 1021.62 1021.94 1022.03 1021.92 1021.92 1021.93 1021.91 1021.86 1021.68 1021.52 1021.35 1021.37 1021.41 1021.22 1020.92 1020.98 1020.81 1020.55 1020.28 1019.94 1019.85 1019.98 1020.21 1020.22 1020.04 1020.06 1020.07
1018.26 1018.90 1019.47 1019.94 1020.00 1020.31 1020.63 1020.69 1020.83 1020.91 1021.00 1021.20 1021.31 1021.53 1021.64 1021.85 1022.00 1022.11 1022.21 1022.27 1022.23 1022.16 1022.12 1022.34 1022.18 1022.01 1021.84 1021.85 1021.78 1021.52 1021.32 1021.10 1020.79 1020.60 1020.51 1019.78 1019.82 1020.21 1020.32 1020.38 1020.31 1020.23 1020.13
1018.54 1019.10 1019.52 1020.03 1020.15 1020.51 1020.71 1020.79 1020.94 1021.01 1021.17 1021.38 1021.58 1021.73 1021.97 1022.08 1022.27 1022.41 1022.60 1022.54 1022.48 1022.35 1022.39 1022.27 1022.13 1022.02 1022.21 1022.13 1022.03 1021.85 1021.78 1021.40 1020.99 1020.80 1020.38 1020.40 1020.28 1020.70 1020.55 1020.43 1020.42 1020.44 1020.27
1018.66 1019.24 1019.69 1020.14 1020.51 1020.68 1020.90 1020.97 1020.99 1021.20 1021.53 1021.71 1021.77 1022.11 1022.17 1022.24 1022.42 1022.56 1022.74 1022.68 1022.73 1022.83 1022.83 1022.80 1022.57 1022.49 1022.40 1022.39 1022.20 1022.04 1021.73 1021.76 1021.36 1020.80 1020.73 1020.76 1020.72 1020.90 1020.71 1020.67 1020.38 1020.28 1020.34
1019.09 1019.48 1019.91 1020.30 1020.55 1020.83 1021.12 1021.10 1021.38 1021.56 1021.83 1022.15 1022.18 1022.48 1022.48 1022.57 1022.78 1022.96 1023.09 1022.79 1022.80 1022.78 1022.79 1022.90 1022.76 1022.61 1022.55 1022.65 1022.40 1022.41 1021.93 1021.86 1021.40 1021.01 1021.19 1021.20 1021.20 1021.28 1021.06 1020.91 1020.79 1020.65 1020.56
1019.33 1019.80 1020.05 1020.54 1020.78 1021.12 1021.26 1021.34 1021.75 1021.93 1022.15 1022.25 1022.40 1022.60 1022.66 1022.80 1023.01 1023.09 1023.04 1023.06 1023.27 1023.21 1023.11 1022.98 1022.97 1023.10 1022.81 1022.73 1022.61 1022.80 1022.36 1022.12 1021.57 1021.17 1021.27 1021.32 1021.42 1021.28 1021.01 1021.00 1021.02 1020.86 1020.68
1019.50 1019.98 1020.36 1020.80 1021.06 1021.23 1021.41 1021.66 1021.86 1022.07 1022.20 1022.34 1022.61 1022.68 1022.90 1022.94 1022.95 1023.16 1023.39 1023.32 1023.33 1023.37 1023.60 1023.59 1023.19 1023.11 1023.16 1022.86 1022.87 1022.94 1022.70 1022.49 1021.98 1021.58 1021.44 1021.28 1021.58 1021.37 1021.05 1020.94 1020.98 1020.99 1020.88
1019.84 1020.13 1020.57 1020.74 1021.10 1021.42 1021.64 1021.99 1022.25 1022.36 1022.53 1022.76 1022.85 1022.98 1023.11 1023.25 1023.25 1023.35 1023.42 1023.59 1023.74 1023.39 1023.49 1023.44 1023.26 1023.19 1023.10 1023.02 1023.05 1022.98 1022.87 1022.66 1022.11 1021.94 1021.62 1021.41 1021.74 1021.45 1021.19 1021.06 1021.01 1021.02 1020.97
1020.10 1020.36 1020.82 1021.09 1021.42 1021.76 1021.95 1022.33 1022.52 1022.60 1022.76 1022.95 1023.00 1023.10 1023.23 1023.35 1023.58 1023.65 1023.67 1023.61 1023.71 1023.72 1023.81 1023.49 1023.32 1023.40 1023.22 1023.27 1023.23 1023.18 1022.96 1022.75 1022.43 1022.07 1021.72 1021.77 1021.84 1021.49 1021.22 1021.05 1020.99 1020.98 1020.93
1020.46 1020.65 1020.98 1021.13 1021.65 1021.98 1022.16 1022.48 1022.73 1022.89 1023.18 1023.21 1023.27 1023.42 1023.40 1023.31 1023.53 1023.49 1023.79 1024.05 1024.01 1024.01 1024.15 1023.86 1023.75 1023.79 1023.53 1023.35 1023.35 1023.16 1022.96 1022.72 1022.55 1022.32 1022.08 1022.23 1021.98 1021.54 1021.31 1021.07 1020.97 1020.87 1020.86
1020.46 1020.85 1021.03 1021.51 1021.85 1022.33 1022.41 1022.64 1022.85 1023.13 1023.23 1023.26 1023.45 1023.57 1023.51 1023.63 1023.69 1023.88 1024.01 1024.30 1024.22 1024.29 1024.46 1024.28 1024.16 1023.96 1023.73 1023.61 1023.39 1023.22 1023.00 1022.99 1022.54 1022.39 1022.29 1022.69 1022.24 1021.78 1021.46 1021.14 1020.87 1020.70 1020.68
1020.20 1020.87 1021.20 1021.65 1022.12 1022.46 1022.57 1023.09 1023.13 1023.40 1023.39 1023.40 1023.76 1023.70 1023.73 1023.86 1023.93 1023.87 1024.20 1024.43 1024.35 1024.70 1024.66 1024.49 1024.26 1024.25 1024.28 1024.10 1023.93 1023.68 1023.31 1022.95 1022.77 1022.54 1022.41 1022.63 1022.37 1021.97 1021.59 1021.25 1020.91 1020.62 1020.47
1020.38 1020.87 1021.44 1022.05 1022.51 1022.86 1023.00 1023.13 1023.36 1023.31 1023.60 1023.54 1023.75 1023.81 1023.85 1023.85 1024.02 1024.14 1024.41 1024.73 1024.70 1024.83 1024.92 1024.95 1024.80 1024.88 1024.64 1024.39 1024.28 1023.88 1023.54 1023.25 1022.96 1022.76 1022.58 1022.72 1022.36 1022.04 1021.70 1021.35 1021.10 1020.85 1020.52
1020.69 1021.12 1021.56 1022.27 1022.69 1023.06 1023.28 1023.58 1023.83 1023.94 1023.86 1023.82 1023.85 1024.01 1024.01 1024.08 1024.32 1024.42 1024.77 1024.82 1024.99 1025.05 1024.99 1024.84 1024.89 1024.99 1024.80 1024.47 1024.30 1024.05 1023.64 1023.33 1023.14 1022.88 1022.67 1022.76 1022.57 1022.29 1021.95 1021.61 1021.33 1021.08 1020.81
1020.60 1021.26 1021.80 1022.30 1022.97 1023.15 1023.46 1023.62 1024.11 1024.24 1024.41 1024.33 1024.42 1024.25 1024.35 1024.40 1024.68 1024.82 1025.02 1025.16 1025.23 1025.04 1025.12 1025.18 1025.02 1024.98 1024.87 1024.65 1024.30 1024.09 1023.71 1023.37 1023.23 1023.10 1022.70 1022.45 1022.77 1022.53 1022.27 1022.01 1021.74 1021.48 1021.13
1020.61 1021.33 1021.97 1022.69 1023.00 1023.18 1023.50 1024.16 1024.67 1024.49 1024.68 1024.75 1024.84 1024.58 1024.40 1024.67 1024.96 1024.99 1024.98 1025.08 1025.30 1025.63 1025.51 1025.48 1025.23 1025.05 1024.94 1024.63 1024.29 1023.96 1023.64 1023.44 1023.27 1023.15 1022.90 1022.66 1022.39 1022.47 1022.44 1022.21 1022.02 1021.76 1021.42
1021.05 1021.67 1022.46 1022.90 1023.32 1023.75 1024.00 1024.62 1024.81 1024.73 1024.90 1025.19 1025.00 1025.14 1024.73 1024.77 1024.80 1025.02 1025.42 1025.57 1025.92 1026.10 1025.61 1025.47 1025.26 1025.09 1024.98 1024.71 1024.33 1023.80 1023.54 1023.36 1023.34 1023.23 1023.08 1022.93 1022.64 1022.35 1022.13 1022.26 1022.11 1021.88 1021.61
1021.10 1021.91 1022.60 1023.06 1023.35 1023.70 1023.72 1023.70 1024.83 1025.35 1024.95 1025.06 1024.74 1024.95 1025.11 1025.42 1025.40 1025.43 1026.04 1025.95 1026.16 1025.79 1025.74 1025.74 1025.53 1025.58 1025.13 1024.78 1024.35 1023.82 1023.54 1023.17 1023.31 1023.24 1023.26 1023.28 1023.09 1022.77 1022.42 1022.17 1021.99 1021.62 1021.47
1021.46 1021.87 1022.30 1023.06 1023.31 1024.47 1024.34 1024.39 1025.01 1025.29 1025.14 1024.92 1024.98 1025.38 1025.47 1025.78 1025.88 1025.81 1025.97 1026.18 1026.17 1025.85 1026.05 1026.15 1026.07 1025.72 1025.44 1025.16 1024.53 1023.94 1023.73 1023.29 1023.40 1023.43 1023.38 1023.26 1023.18 1023.01 1022.68 1022.39 1021.99 1021.49 1021.40
1021.75 1021.98 1022.21 1022.50 1022.95 1023.71 1024.47 1024.81 1024.90 1025.07 1025.02 1025.27 1025.41 1025.71 1025.72 1026.05 1026.26 1026.05 1026.08 1026.28 1026.25 1026.23 1026.52 1026.53 1026.18 1025.82 1025.30 1025.31 1024.45 1023.95 1023.37 1023.35 1023.56 1023.46 1023.45 1023.33 1023.08 1022.90 1022.76 1022.49 1022.09 1021.78 1021.15
1021.59 1021.98 1022.39 1022.56 1022.84 1023.51 1023.75 1023.81 1024.10 1024.57 1024.95 1025.26 1025.76 1026.09 1026.22 1026.26 1026.16 1026.18 1026.24 1026.33 1026.43 1026.35 1026.50 1026.51 1026.38 1025.94 1025.70 1025.62 1025.02 1024.18 1023.22 1023.17 1023.45 1023.53 1023.46 1023.24 1023.22 1022.97 1022.58 1022.43 1022.21 1021.86 1021.35
1021.81 1021.94 1022.22 1022.61 1023.00 1023.42 1023.73 1024.20 1024.64 1024.97 1025.44 1025.74 1026.11 1026.13 1026.23 1026.15 1026.13 1026.13 1026.25 1026.32 1026.50 1026.53 1026.55 1026.62 1026.56 1026.39 1025.90 1025.80 1025.80 1025.35 1024.33 1023.61 1023.87 1023.50 1023.36 1023.31 1023.25 1022.86 1022.56 1022.08 1021.86 1021.58 1021.19
1022.23 1022.14 1022.35 1022.78 1023.27 1023.82 1024.28 1024.39 1024.48 1024.62 1024.95 1025.58 1025.79 1025.94 1026.07 1026.29 1026.30 1026.28 1026.25 1026.28 1026.55 1026.55 1026.45 1026.41 1026.34 1026.35 1026.12 1025.80 1025.80 1025.77 1025.82 1025.41 1024.78 1023.63 1023.57 1023.69 1023.65 1023.29 1022.64 1022.21 1021.75 1021.51 1021.17
1022.53 1022.95 1023.19 1023.42 1023.77 1023.96 1024.19 1024.35 1024.47 1024.76 1025.22 1025.54 1025.78 1025.96 1026.02 1026.09 1026.20 1026.18 1026.25 1026.41 1026.34 1026.26 1026.38 1026.39 1026.37 1026.31 1026.30 1026.17 1026.06 1026.01 1025.84 1025.58 1025.25 1024.82 1023.82 1023.66 1023.64 1023.38 1023.00 1022.96 1022.15 1021.55 1021.34
1022.14 1022.41 1022.80 1023.62 1023.76 1023.84 1024.06 1024.43 1024.65 1024.98 1025.31 1025.42 1025.60 1025.64 1025.69 1025.74 1025.77 1025.93 1026.20 1026.30 1026.26 1026.22 1026.21 1026.15 1026.18 1026.25 1026.20 1026.18 1026.09 1026.08 1025.80 1025.49 1025.20 1024.92 1024.52 1024.22 1023.58 1023.12 1023.01 1022.41 1022.34 1021.60 1021.20
Wind_Speed
10 12 13 16 15 15 15 14 14 15 15 16 16 15 14 15 16 14 13 12 13 14 14 14 15 16 16 15 15 14 14 13 12 11 10 10 8 7 8 6 5 7 9
13 12 11 15 15 16 15 14 14 15 15 16 15 15 15 15 15 14 13 13 12 13 14 14 14 15 15 15 14 14 15 14 13 12 10 5 5 8 10 7 5 7 7
15 13 14 15 15 15 16 15 15 16 16 15 15 15 15 15 14 14 13 11 12 13 14 14 14 15 15 14 14 14 13 13 14 14 11 7 7 11 10 10 8 6 4
14 12 13 13 14 14 14 14 14 15 15 14 14 14 14 14 14 13 12 11 12 14 13 14 14 14 13 13 13 14 14 12 12 11 8 8 8 12 12 12 12 11 8
14 12 12 12 12 13 13 13 13 13 13 12 13 13 13 13 13 13 10 10 12 14 15 15 15 14 12 12 12 12 13 13 10 7 8 8 8 12 13 13 13 10 11
13 13 12 11 12 12 12 12 12 12 11 10 11 12 12 13 13 11 9 11 13 14 14 14 13 13 12 11 12 12 13 13 8 10 8 8 7 11 12 13 11 10 9
13 11 13 10 10 11 12 13 11 10 10 10 10 10 11 12 12 11 10 11 11 12 13 13 13 12 11 11 13 12 12 11 10 10 9 8 7 11 11 11 9 9 9
12 11 11 10 10 10 11 10 10 10 9 9 9 9 10 11 10 10 9 10 10 11 11 12 12 13 12 12 11 11 11 11 10 10 9 7 10 10 11 12 11 10 10
11 11 9 10 10 9 9 9 8 8 8 8 8 9 9 9 9 8 9 9 9 10 11 11 11 11 11 11 11 10 9 9 9 7 9 7 13 12 11 11 10 9 9
7 8 8 8 7 7 8 7 8 8 9 8 9 9 9 8 8 9 7 10 10 10 9 10 10 11 13 13 11 10 9 6 9 7 6 7 15 15 13 12 11 10 10
6 7 7 7 7 6 7 7 7 7 7 7 7 7 6 4 5 6 8 8 10 10 9 11 12 12 11 10 11 11 8 6 7 5 5 12 14 15 15 14 12 11 10
10 8 6 6 7 6 5 6 5 5 4 4 3 4 3 4 4 5 7 8 10 10 11 12 12 10 8 7 6 7 6 8 6 6 5 14 15 15 15 15 14 12 11
11 8 8 7 6 5 4 3 2 2 2 2 2 2 3 2 2 4 4 4 5 8 5 6 7 6 8 6 6 6 7 7 5 5 7 13 15 16 15 14 14 15 14
11 9 7 5 4 3 2 3 3 2 1 1 1 1 1 2 4 4 4 4 4 4 5 5 5 6 7 7 7 7 7 7 6 5 7 14 16 16 16 16 15 15 16
9 8 7 6 5 4 4 2 2 2 2 2 2 3 3 4 5 5 5 4 4 4 4 5 5 5 5 6 6 6 6 7 8 5 5 10 14 15 15 16 17 17 16
7 8 8 7 6 6 4 4 3 3 4 3 2 3 5 4 5 5 5 4 4 4 4 3 3 3 4 5 6 6 6 6 6 7 6 5 12 14 15 16 18 19 19
8 9 12 10 9 10 9 8 5 5 4 3 3 4 8 7 7 6 4 4 5 4 4 3 5 5 5 5 7 6 6 6 6 5 5 5 5 8 13 16 18 19 20
8 10 13 11 12 9 10 6 6 4 4 2 4 4 8 7 7 6 4 5 4 3 4 4 5 5 6 6 6 7 6 6 5 4 4 5 6 6 7 15 17 18 19
13 15 15 12 11 7 6 8 3 4 4 4 5 5 7 5 5 8 4 5 4 4 5 5 4 5 5 6 7 6 8 6 2 3 5 5 6 7 7 13 18 18 20
14 15 15 10 9 8 5 6 4 3 4 4 5 3 5 6 7 6 6 5 3 4 5 5 5 5 5 6 7 6 8 5 1 3 5 5 6 8 8 11 11 12 18
15 15 13 12 8 8 5 4 4 3 3 3 4 6 7 7 6 6 4 4 4 5 5 5 5 7 6 7 5 7 5 3 4 4 6 5 8 8 10 10 9 10 11
12 11 10 10 12 10 9 5 1 3 3 5 4 6 6 6 5 5 4 4 4 4 6 6 6 5 4 5 6 6 4 4 2 9 8 9 9 9 12 11 13 13 12
9 9 9 9 12 9 5 3 4 6 4 3 3 3 3 4 5 5 4 3 3 2 3 4 5 6 5 4 5 4 5 4 10 5 11 9 13 11 11 13 13 13 12
6 9 10 10 9 6 4 4 4 1 2 2 2 2 2 1 3 2 2 3 2 2 3 3 3 3 4 5 5 3 6 8 8 8 5 9 9 14 15 12 13 12 12
7 6 6 8 7 6 5 5 4 6 4 4 3 2 2 3 3 3 3 1 1 2 1 1 2 3 3 4 4 5 5 6 7 9 12 10 10 9 8 12 10 9 9
8 8 8 7 7 7 7 7 8 7 5 3 1 2 3 3 4 4 3 2 3 4 4 4 4 5 4 4 4 4 6 7 7 8 10 11 13 11 11 10 10 8 8
Wind_Direction
151 149 145 138 135 125 118 120 119 114 110 106 104 102 102 97 90 89 88 82 74 71 69 64 58 54 48 44 35 30 24 13 7 7 5 346 356 14 28 44 33 62 87
140 147 148 137 131 126 127 126 118 113 112 112 109 106 100 96 95 93 86 82 81 78 72 66 61 57 52 45 36 28 24 16 7 1 356 339 351 12 31 47 38 88 108
140 147 152 137 132 133 135 127 122 120 114 109 107 106 103 101 99 97 91 85 81 75 69 62 58 54 50 45 36 31 26 20 18 12 358 11 26 18 24 29 21 10 81
130 141 145 138 136 138 134 131 124 119 117 116 114 112 110 109 105 99 92 83 79 74 72 71 67 63 52 43 38 28 20 20 23 13 17 9 22 21 4 15 8 9 359
128 142 145 136 138 137 138 132 122 120 121 123 122 121 118 112 107 101 95 85 77 72 69 70 68 61 53 41 36 27 22 13 17 21 18 18 11 10 10 8 354 346 358
139 151 141 136 139 138 134 123 123 121 125 127 121 121 116 109 104 98 88 79 79 77 72 69 63 55 48 36 38 28 21 18 5 30 30 36 20 4 2 4 12 5 355
146 151 150 143 132 132 133 127 126 129 130 127 123 122 115 106 98 89 79 76 71 66 61 56 49 42 45 41 32 25 20 12 13 28 32 32 23 6 24 18 8 357 349
150 153 152 137 133 135 131 130 138 137 136 129 128 119 111 102 95 88 77 70 69 64 55 46 42 35 30 36 33 29 26 16 17 14 14 22 12 7 11 18 21 26 25
157 153 151 153 147 138 135 141 145 136 131 129 122 116 109 102 94 83 65 55 47 53 53 45 38 32 28 32 28 25 28 24 21 16 6 5 0 353 358 1 6 12 15
151 143 154 151 149 149 149 149 152 140 141 137 135 126 120 105 88 67 58 45 37 33 46 52 50 33 30 24 24 19 13 6 7 4 11 7 347 350 349 348 349 352 359
150 149 158 154 160 151 156 164 154 146 147 139 133 125 118 104 92 80 54 39 43 45 51 58 51 40 25 29 20 13 357 2 352 354 348 352 342 343 338 340 337 337 338
169 172 167 166 156 163 171 156 150 150 154 146 137 130 111 88 76 71 62 61 62 63 57 51 47 45 36 24 13 10 9 357 359 352 358 347 340 335 330 327 329 325 322
175 178 177 168 158 164 148 151 132 137 145 138 155 148 100 89 91 85 78 59 62 46 41 45 44 42 39 27 14 4 358 356 357 350 1 360 358 350 344 335 325 322 325
182 176 159 150 127 131 90 139 147 173 167 149 110 83 110 113 100 89 84 72 69 63 69 51 44 32 29 31 22 7 6 2 357 342 345 1 360 358 356 353 350 345 340
179 165 147 132 112 105 59 50 17 2 337 347 50 75 110 108 95 100 94 86 74 71 62 57 48 25 13 11 10 3 356 360 356 349 334 8 13 18 17 14 9 7 2
178 151 117 109 106 93 76 65 27 354 339 25 24 89 88 103 110 99 89 84 81 72 64 47 49 21 5 351 347 344 342 351 350 341 335 356 36 31 26 21 16 9 3
182 141 111 96 94 93 84 69 48 12 39 57 62 76 109 108 104 113 112 86 64 48 54 25 15 6 344 337 331 329 330 349 348 351 357 8 13 35 22 18 11 6 360
135 111 110 108 93 86 84 55 35 26 53 78 113 113 109 116 116 94 66 73 64 56 36 17 13 348 340 339 334 330 334 337 350 46 33 13 6 357 357 4 0 356 353
130 125 114 114 106 105 86 96 92 145 129 147 123 111 97 72 85 84 81 67 48 49 37 10 3 345 333 338 327 319 329 327 350 31 22 18 14 359 347 348 347 341 344
130 125 124 122 103 40 88 106 142 130 143 122 100 96 104 99 101 95 79 69 47 49 35 14 350 345 329 345 322 312 309 292 187 12 5 349 353 347 342 337 334 333 333
132 131 133 128 140 123 156 152 157 167 127 90 94 93 92 84 82 82 81 64 46 43 36 11 347 348 346 351 317 325 300 195 251 347 342 332 336 336 337 332 330 328 321
146 141 139 150 146 167 173 171 121 143 100 99 88 74 80 98 93 82 74 67 52 38 28 17 14 345 335 5 338 309 316 281 335 331 326 331 336 324 325 323 323 322 317
142 151 163 151 158 169 162 130 105 99 109 133 123 104 103 92 80 73 75 84 87 56 35 26 11 0 338 345 9 332 315 303 325 307 311 321 326 323 320 316 314 319 312
113 123 139 147 148 138 158 177 166 115 143 94 134 134 111 86 82 54 150 160 124 83 62 23 9 345 330 327 321 310 309 306 306 306 312 316 320 316 320 322 316 320 320
116 98 104 117 121 117 118 128 122 96 95 110 122 170 235 238 234 269 241 213 134 71 75 314 282 295 307 305 303 307 301 298 293 299 309 319 314 317 308 319 326 321 319
137 134 123 139 119 112 103 98 98 107 117 114 168 279 278 284 285 289 277 247 205 213 218 222 225 240 261 265 271 277 298 310 311 310 306 312 313 317 310 301 322 319 318